Cumberland, WV

12:31 AM EDT on October 18, 2017 (GMT -0400)
Greater Cumberland Regional

Weather History for KCBE - February, 2013

Change the Weather History Date:

Thursday, February 7, 2013

  Actual Average (KMRB) Record (KMRB)
Temperature  
Mean Temperature 29 °F -  
Max Temperature 37 °F 38 °F 72 °F (2017)
Min Temperature 21 °F 21 °F -3 °F (1935)
Degree Days  
Heating Degree Days 36    
Moisture  
Dew Point 24 °F    
Average Humidity 80    
Maximum Humidity 100    
Minimum Humidity 65    
Precipitation  
Precipitation 0.00 in - - ()
Sea Level Pressure  
Sea Level Pressure 30.32 in    
Wind  
Wind Speed 3 mph (ESE)    
Max Wind Speed 12 mph    
Max Gust Speed 17 mph    
Visibility 8 miles    
Events      
Averages and records for this station are not official NWS values.
T = Trace of Precipitation, MM = Missing Value Source: NWS Daily Summary

Daily Weather History Graph

Daily Weather History Graph

Search for Another Location

Airport or City:

Trip Planner

Search our weather history database for the weather conditions in past years. The results will help you decide how hot, cold, wet, or windy it might be!

Date:

Astronomy

Feb. 07, 2013 Rise Set
Actual Time 7:16 AM EST 5:42 PM EST
Civil Twilight 6:48 AM EST 6:10 PM EST
Nautical Twilight 6:16 AM EST 6:42 PM EST
Astronomical Twilight 5:45 AM EST 7:13 PM EST
Moon 4:54 AM EST (2/7) 3:05 PM EST (2/7)
Length of Visible Light 11h 22m
Length of Day
10h 26m
Waning Crescent, 9% of the Moon is Illuminated
Feb 7
Waning Crescent
Feb 10
New
Feb 17
First Quarter
Feb 25
Full
Mar 4
Last Quarter

Hourly Weather History & Observations

Time (EST) Temp. Windchill Dew Point Humidity Pressure Visibility Wind Dir Wind Speed Gust Speed Precip Events Conditions
12:00 AM 26.6 °F 21.2 °F 23.0 °F 86% 30.35 in 10.0 mi SE 4.6 mph - N/A   Clear
12:21 AM 23.0 °F 17.0 °F 23.0 °F 100% 30.37 in 7.0 mi ESE 4.6 mph - N/A   Clear
12:41 AM 23.0 °F - 21.2 °F 93% 30.35 in 7.0 mi Calm Calm - N/A   Clear
1:01 AM 23.0 °F - 23.0 °F 100% 30.37 in 7.0 mi Calm Calm - N/A   Clear
1:21 AM 23.0 °F - 23.0 °F 100% 30.38 in 7.0 mi Calm Calm - N/A   Clear
1:41 AM 21.2 °F 16.4 °F 21.2 °F 100% 30.38 in 7.0 mi South 3.5 mph - N/A   Clear
2:01 AM 23.0 °F - 21.2 °F 93% 30.37 in 5.0 mi Calm Calm - N/A   Clear
2:21 AM 21.2 °F - 21.2 °F 100% 30.39 in 5.0 mi Calm Calm - N/A   Clear
2:41 AM 23.0 °F 17.0 °F 21.2 °F 93% 30.38 in 7.0 mi NE 4.6 mph - N/A   Clear
3:01 AM 23.0 °F - 21.2 °F 93% 30.37 in 7.0 mi Calm Calm - N/A   Clear
3:21 AM 23.0 °F 18.4 °F 21.2 °F 93% 30.36 in 7.0 mi NW 3.5 mph - N/A   Clear
3:41 AM 23.0 °F - 21.2 °F 93% 30.35 in 7.0 mi Calm Calm - N/A   Clear
4:01 AM 23.0 °F 18.4 °F 21.2 °F 93% 30.35 in 7.0 mi North 3.5 mph - N/A   Clear
4:21 AM 23.0 °F - 21.2 °F 93% 30.36 in 7.0 mi Calm Calm - N/A   Clear
4:41 AM 21.2 °F - 19.4 °F 93% 30.38 in 7.0 mi Calm Calm - N/A   Clear
5:01 AM 23.0 °F 15.8 °F 21.2 °F 93% 30.39 in 7.0 mi North 5.8 mph - N/A   Clear
5:21 AM 23.0 °F - 21.2 °F 93% 30.38 in 7.0 mi Calm Calm - N/A   Clear
5:41 AM 23.0 °F 15.8 °F 21.2 °F 93% 30.39 in 7.0 mi North 5.8 mph - N/A   Clear
6:01 AM 23.0 °F 15.8 °F 21.2 °F 93% 30.39 in 7.0 mi North 5.8 mph - N/A   Clear
6:21 AM 23.0 °F 17.0 °F 21.2 °F 93% 30.39 in 7.0 mi NNE 4.6 mph - N/A   Clear
6:41 AM 23.0 °F 18.4 °F 21.2 °F 93% 30.40 in 7.0 mi North 3.5 mph - N/A   Clear
7:01 AM 23.0 °F 18.4 °F 21.2 °F 93% 30.40 in 7.0 mi North 3.5 mph - N/A   Clear
7:21 AM 24.8 °F 20.5 °F 21.2 °F 86% 30.40 in 10.0 mi North 3.5 mph - N/A   Clear
7:41 AM 24.8 °F 20.5 °F 21.2 °F 86% 30.41 in 7.0 mi North 3.5 mph - N/A   Clear
8:01 AM 24.8 °F 19.1 °F 21.2 °F 86% 30.41 in 7.0 mi North 4.6 mph - N/A   Clear
8:21 AM 24.8 °F 20.5 °F 21.2 °F 86% 30.41 in 7.0 mi North 3.5 mph - N/A   Clear
8:41 AM 26.6 °F - 21.2 °F 80% 30.42 in 7.0 mi Calm Calm - N/A   Clear
9:02 AM 26.6 °F - 23.0 °F 86% 30.41 in 7.0 mi Calm Calm - N/A   Clear
9:22 AM 26.6 °F - 23.0 °F 86% 30.41 in 7.0 mi Calm Calm - N/A   Clear
9:42 AM 28.4 °F - 23.0 °F 80% 30.40 in 7.0 mi Calm Calm - N/A   Clear
10:02 AM 28.4 °F - 24.8 °F 86% 30.40 in 7.0 mi Calm Calm - N/A   Clear
10:22 AM 30.2 °F - 24.8 °F 80% 30.40 in 5.0 mi Calm Calm - N/A   Clear
10:42 AM 30.2 °F - 24.8 °F 80% 30.39 in 5.0 mi Calm Calm - N/A   Clear
11:02 AM 32.0 °F - 24.8 °F 75% 30.39 in 5.0 mi Calm Calm - N/A   Scattered Clouds
11:22 AM 32.0 °F - 24.8 °F 75% 30.38 in 7.0 mi Calm Calm - N/A   Mostly Cloudy
11:42 AM 32.0 °F - 24.8 °F 75% 30.37 in 10.0 mi Calm Calm - N/A   Mostly Cloudy
12:02 PM 32.0 °F - 24.8 °F 75% 30.36 in 10.0 mi Calm Calm - N/A   Scattered Clouds
12:22 PM 32.0 °F - 24.8 °F 75% 30.34 in 10.0 mi Calm Calm - N/A   Clear
12:42 PM 33.8 °F - 24.8 °F 70% 30.33 in 10.0 mi Calm Calm - N/A   Clear
1:02 PM 33.8 °F - 26.6 °F 75% 30.32 in 10.0 mi Calm Calm - N/A   Clear
1:22 PM 33.8 °F - 26.6 °F 75% 30.31 in 10.0 mi Calm Calm - N/A   Clear
1:42 PM 35.6 °F - 26.6 °F 70% 30.30 in 10.0 mi Calm Calm - N/A   Clear
2:02 PM 35.6 °F - 26.6 °F 70% 30.29 in 10.0 mi Calm Calm - N/A   Clear
2:22 PM 37.4 °F 34.9 °F 28.4 °F 70% 30.27 in 10.0 mi SSE 3.5 mph - N/A   Clear
2:42 PM 37.4 °F 30.8 °F 26.6 °F 65% 30.27 in 10.0 mi SE 9.2 mph - N/A   Clear
3:02 PM 37.4 °F 30.3 °F 26.6 °F 65% 30.26 in 10.0 mi ESE 10.4 mph - N/A   Clear
3:22 PM 37.4 °F 29.8 °F 26.6 °F 65% 30.26 in 10.0 mi SE 11.5 mph - N/A   Clear
3:42 PM 37.4 °F 30.3 °F 26.6 °F 65% 30.26 in 10.0 mi ESE 10.4 mph - N/A   Clear
4:02 PM 37.4 °F 32.1 °F 26.6 °F 65% 30.26 in 10.0 mi SSE 6.9 mph - N/A   Clear
4:22 PM 35.6 °F 30.7 °F 26.6 °F 70% 30.25 in 10.0 mi SE 5.8 mph - N/A   Clear
4:42 PM 35.6 °F 29.9 °F 26.6 °F 70% 30.24 in 10.0 mi ESE 6.9 mph - N/A   Clear
5:02 PM 35.6 °F 31.7 °F 26.6 °F 70% 30.25 in 10.0 mi SE 4.6 mph - N/A   Clear
5:23 PM 35.6 °F 31.7 °F 26.6 °F 70% 30.25 in 10.0 mi ESE 4.6 mph - N/A   Clear
5:43 PM 35.6 °F 30.7 °F 26.6 °F 70% 30.25 in 10.0 mi ESE 5.8 mph - N/A   Clear
6:03 PM 35.6 °F 31.7 °F 26.6 °F 70% 30.25 in 10.0 mi East 4.6 mph - N/A   Scattered Clouds
6:23 PM 35.6 °F 31.7 °F 26.6 °F 70% 30.25 in 10.0 mi ESE 4.6 mph - N/A   Mostly Cloudy
6:43 PM 35.6 °F - 26.6 °F 70% 30.26 in 10.0 mi Calm Calm - N/A   Overcast
7:03 PM 35.6 °F 30.7 °F 26.6 °F 70% 30.26 in 10.0 mi ESE 5.8 mph - N/A   Overcast
7:23 PM 35.6 °F 31.7 °F 26.6 °F 70% 30.25 in 10.0 mi SE 4.6 mph - N/A   Overcast
7:43 PM 35.6 °F 32.8 °F 26.6 °F 70% 30.25 in 10.0 mi SSE 3.5 mph - N/A   Overcast
8:03 PM 35.6 °F 31.7 °F 26.6 °F 70% 30.24 in 10.0 mi SSE 4.6 mph - N/A   Overcast
8:23 PM 35.6 °F 32.8 °F 26.6 °F 70% 30.23 in 10.0 mi SSE 3.5 mph - N/A   Overcast
9:03 PM 35.6 °F 29.2 °F 26.6 °F 70% 30.23 in 10.0 mi SSE 8.1 mph - N/A   Overcast
9:43 PM 35.6 °F 29.9 °F 26.6 °F 70% 30.22 in 10.0 mi SSE 6.9 mph 16.1 mph N/A   Overcast
10:03 PM 35.6 °F 28.0 °F 26.6 °F 70% 30.22 in 10.0 mi SE 10.4 mph 17.3 mph N/A   Overcast
10:23 PM 35.6 °F 29.2 °F 26.6 °F 70% 30.22 in 10.0 mi SE 8.1 mph - N/A   Overcast
10:43 PM 35.6 °F 29.2 °F 28.4 °F 75% 30.20 in 10.0 mi ESE 8.1 mph - N/A   Overcast
11:03 PM 35.6 °F 29.9 °F 28.4 °F 75% 30.19 in 10.0 mi SE 6.9 mph - N/A   Overcast
11:23 PM 35.6 °F 29.9 °F 28.4 °F 75% 30.19 in 10.0 mi SE 6.9 mph - N/A   Overcast
11:43 PM 35.6 °F - 28.4 °F 75% 30.18 in 10.0 mi Calm Calm - N/A   Overcast